Weather History for Medicine Hat, AB

Change the Weather History Date:

Tuesday, July 2, 2013

  Actual Average Record
Temperature  
Mean Temperature 79 °F -  
Max Temperature 96 °F 81 °F 96 °F (2013)
Min Temperature 62 °F 54 °F 44 °F (2002)
Cooling Degree Days 14    
Growing Degree Days 29 (Base 50)    
Moisture  
Dew Point 58 °F    
Average Humidity 49    
Maximum Humidity 83    
Minimum Humidity 25    
Precipitation  
Precipitation 0.00 in 0.05 in - ()
Sea Level Pressure  
Sea Level Pressure 29.95 in    
Wind  
Wind Speed 6 mph ()    
Max Wind Speed 17 mph    
Max Gust Speed 22 mph    
Visibility 9.0 miles    
Events      
Averages and records for this station are not official NWS values.
T = Trace of Precipitation, MM = Missing Value Source: Averaged Metar Reports

Daily Weather History Graph

Daily Weather History Graph

Search for Another Location

Airport:

Trip Planner

Search our weather history database for the weather conditions in past years. The results will help you decide how hot, cold, wet, or windy it might be!

Date:

Astronomy

Jul. 02, 2013 Rise Set
Actual Time 5:18 AM MDT 9:34 PM MDT
Civil Twilight 4:34 AM MDT 10:18 PM MDT
Nautical Twilight 3:30 AM MDT 11:22 PM MDT
Astronomical Twilight 1:59 AM MDT 12:54 AM MDT
Moon 1:41 AM MDT (7/2) 4:37 PM MDT (7/2)
Length of Visible Light 17h 44m
Length of Day
16h 16m
Waning Crescent, 26% of the Moon is Illuminated
Jul 2
Waning Crescent
Jul 8
New
Jul 15
First Quarter
Jul 22
Full
Jul 29
Last Quarter

Hourly Weather History & Observations

Time (MDT) Temp. Heat Index Dew Point Humidity Pressure Visibility Wind Dir Wind Speed Gust Speed Precip Events Conditions
12:00 AM 71.6 °F - 59.0 °F 64% 30.08 in 9.0 mi East 4.6 mph - N/A   Clear
1:00 AM 68.0 °F - 57.2 °F 68% 30.08 in 9.0 mi ESE 5.8 mph - N/A   Clear
2:00 AM 66.2 °F - 57.2 °F 73% 30.06 in 9.0 mi Variable 2.3 mph - N/A   Clear
3:00 AM 64.4 °F - 59.0 °F 83% 30.06 in 9.0 mi NNE 2.3 mph - N/A   Clear
4:00 AM 64.4 °F - 57.2 °F 77% 30.05 in 9.0 mi North 2.3 mph - N/A   Clear
5:00 AM 64.4 °F - 59.0 °F 83% 30.04 in 9.0 mi Calm Calm - N/A   Clear
6:00 AM 62.6 °F - 57.2 °F 82% 30.04 in 9.0 mi North 2.3 mph - N/A   Clear
7:00 AM 68.0 °F - 60.8 °F 78% 30.03 in 30.0 mi North 2.3 mph - N/A   Partly Cloudy
8:00 AM 75.2 °F - 59.0 °F 57% 30.02 in 30.0 mi Calm Calm - N/A   Partly Cloudy
9:00 AM 82.4 °F 82.5 °F 59.0 °F 45% 30.01 in 30.0 mi SSE 3.5 mph - N/A   Clear
10:00 AM 87.8 °F 86.5 °F 57.2 °F 35% 30.00 in 30.0 mi South 12.7 mph 18.4 mph N/A   Clear
11:00 AM 89.6 °F 87.7 °F 55.4 °F 31% 29.99 in 30.0 mi South 17.3 mph - N/A   Clear
12:00 PM 91.4 °F 89.4 °F 55.4 °F 29% 29.97 in 30.0 mi SE 10.4 mph 18.4 mph N/A   Clear
1:00 PM 93.2 °F 91.3 °F 55.4 °F 28% 29.96 in 30.0 mi SSE 13.8 mph - N/A   Clear
2:00 PM 93.2 °F 91.3 °F 55.4 °F 28% 29.95 in 30.0 mi South 12.7 mph - N/A   Clear
3:00 PM 95.0 °F 92.7 °F 53.6 °F 25% 29.93 in 30.0 mi SSW 11.5 mph 18.4 mph N/A   Clear
4:00 PM 95.0 °F 93.7 °F 57.2 °F 28% 29.90 in 30.0 mi South 12.7 mph - N/A   Clear
5:00 PM 96.8 °F 95.8 °F 57.2 °F 27% 29.87 in 30.0 mi South 12.7 mph - N/A   Clear
6:00 PM 96.8 °F 95.1 °F 55.4 °F 25% 29.85 in 30.0 mi South 12.7 mph - N/A   Clear
7:00 PM 95.0 °F 93.7 °F 57.2 °F 28% 29.82 in 30.0 mi South 12.7 mph - N/A   Clear
8:00 PM 91.4 °F 90.7 °F 59.0 °F 34% 29.80 in 30.0 mi South 10.4 mph - N/A   Clear
9:00 PM 86.0 °F 86.6 °F 62.6 °F 45% 29.77 in 30.0 mi SSE 9.2 mph - N/A   Clear
10:00 PM 82.4 °F 82.9 °F 60.8 °F 48% 29.76 in 9.0 mi South 9.2 mph - N/A   Clear
11:00 PM 82.4 °F 82.5 °F 59.0 °F 45% 29.74 in 9.0 mi South 15.0 mph 21.9 mph N/A   Clear